Theta_e
346 346 349 343 327 320 313 314 320 319 321 327 329 326 325 324 320 321 339 340 336 343 350 350 350 351 346 348 348 346 348 344 341 338 336 336 335 333 334 334 333 333 333 333 334 335 335 335 334
347 348 345 336 319 311 312 320 318 322 326 330 329 328 326 322 330 332 336 337 338 345 347 348 349 348 347 349 346 346 345 342 339 337 336 335 330 332 333 332 331 331 331 332 332 332 332 332 332
345 347 336 325 316 311 313 320 322 326 329 328 328 330 327 326 331 334 339 337 341 343 346 351 350 348 349 347 344 344 342 340 338 337 335 331 332 332 332 332 332 333 334 334 334 334 335 336 337
344 341 334 319 312 317 318 321 325 326 329 331 330 325 329 333 331 332 336 338 343 342 345 350 351 349 348 345 341 338 338 340 337 335 333 331 332 332 332 332 333 334 334 336 336 335 335 335 336
343 335 320 316 315 319 323 324 326 324 327 329 329 324 325 331 332 336 339 340 341 342 344 347 350 349 346 342 340 336 335 336 338 334 332 332 332 332 332 332 333 334 334 336 336 334 334 334 334
332 331 316 313 316 320 324 326 327 326 328 329 327 327 328 335 336 338 340 342 344 342 344 347 351 349 345 342 338 335 337 337 336 334 333 332 332 333 333 334 334 334 335 334 334 334 333 334 333
328 322 317 317 317 319 323 328 325 326 327 327 331 325 331 334 338 340 341 344 345 344 345 346 347 348 344 341 337 335 337 337 337 335 333 332 334 335 336 336 336 335 335 334 332 333 333 334 333
331 326 318 319 317 316 325 326 329 327 327 334 335 326 327 334 339 341 341 343 345 345 344 345 348 345 342 337 337 336 337 336 334 332 333 337 338 338 338 338 336 334 333 330 331 332 332 332 331
335 322 315 317 318 320 326 324 329 332 330 331 332 328 334 337 339 339 340 341 344 344 345 345 344 345 343 339 336 336 336 335 335 336 337 336 335 336 338 337 335 332 329 330 330 330 332 333 333
328 318 318 323 324 323 325 325 326 326 328 328 328 331 333 337 338 337 338 338 341 343 344 345 343 343 342 338 339 340 339 338 338 336 336 336 334 331 331 335 335 332 331 332 331 332 334 336 331
325 319 324 325 326 327 326 325 328 326 323 327 326 330 334 337 338 337 338 340 341 344 346 345 345 345 342 339 341 341 341 340 338 338 338 337 333 332 331 333 332 334 332 332 331 332 331 330 330
320 324 325 326 327 327 326 328 327 329 330 332 332 333 335 336 336 337 338 339 342 344 348 348 346 346 345 342 340 341 341 340 338 337 339 339 335 335 332 331 332 332 331 333 333 329 331 331 331
322 323 326 328 328 328 328 327 327 330 333 332 333 335 335 336 337 340 342 342 343 343 346 349 349 349 347 346 342 341 341 339 339 338 338 339 335 335 334 333 331 332 332 331 330 331 331 331 330
323 323 324 327 327 329 326 327 327 332 334 331 332 333 335 336 337 339 338 336 338 342 345 349 350 351 349 347 345 342 342 342 341 338 338 338 337 338 336 333 334 334 332 332 330 329 330 330 331
324 322 325 324 326 325 328 323 326 333 334 331 331 333 333 335 336 335 333 333 335 339 344 350 353 351 351 349 346 344 342 342 340 338 340 339 339 340 339 335 333 335 333 332 333 331 331 330 329
321 322 313 323 324 327 326 319 329 334 333 331 332 332 333 334 336 334 335 336 339 341 342 351 351 352 352 349 347 343 343 343 342 339 339 339 339 340 339 334 335 335 333 333 332 330 329 329 329
316 312 314 317 325 323 322 321 328 331 330 329 332 332 331 334 334 335 337 335 337 342 346 350 354 351 351 352 348 347 347 344 345 344 339 340 339 338 339 335 336 336 332 332 330 332 331 329 329
310 312 314 313 320 320 318 319 327 329 327 329 329 331 332 333 334 336 337 335 337 343 346 351 353 354 355 349 350 345 344 344 342 340 338 339 338 338 339 336 337 335 331 331 333 333 332 329 329
317 315 314 314 322 319 319 319 322 328 328 327 328 330 332 333 338 336 336 336 337 341 344 349 350 353 349 345 343 340 339 339 339 339 339 338 339 339 341 337 336 336 332 334 335 333 332 329 332
316 314 313 317 321 320 319 319 322 325 326 328 328 330 332 334 335 335 337 337 334 339 343 345 347 351 349 344 343 339 340 340 339 338 339 339 339 340 340 341 336 336 331 334 334 334 331 328 331
315 313 314 312 318 320 314 314 316 324 327 327 328 332 332 332 332 335 338 339 337 339 342 344 347 349 350 351 342 342 340 340 336 337 335 338 339 339 341 341 339 337 335 331 335 334 334 328 330
312 318 316 314 313 307 319 306 316 317 323 324 328 329 329 330 333 335 337 341 342 341 342 344 346 348 347 348 347 346 335 333 336 336 335 339 340 339 339 340 339 339 335 340 334 333 333 334 328
313 318 315 315 314 313 309 308 315 313 318 321 324 328 329 331 331 331 333 337 342 343 341 343 346 348 348 348 347 339 339 337 337 338 343 347 343 341 339 340 340 339 336 341 338 337 336 332 330
319 317 319 315 311 306 311 310 310 311 316 321 324 324 324 327 330 332 335 337 342 345 343 342 344 347 348 346 345 344 342 340 335 338 334 335 337 339 341 339 341 344 341 338 337 337 337 337 335
319 315 306 303 304 301 314 310 310 317 320 320 320 323 326 328 329 331 333 334 336 338 346 344 342 343 345 344 344 343 343 342 338 339 337 339 337 336 342 345 343 339 342 340 341 341 337 337 335
314 315 307 301 301 305 313 302 313 323 324 323 324 326 327 328 330 330 333 335 335 339 341 341 342 342 343 343 343 344 344 340 338 344 339 339 338 335 344 343 343 342 340 342 343 336 334 340 335
314 311 318 310 311 307 306 310 319 321 322 323 324 327 326 329 330 329 332 334 334 335 340 340 340 341 344 345 345 346 348 343 341 344 344 340 345 341 340 341 341 341 341 341 345 336 339 340 339
317 318 308 311 300 301 307 304 305 311 320 322 324 325 327 329 328 328 329 332 333 332 335 339 340 342 345 347 346 348 347 346 345 345 342 343 345 343 342 341 341 339 340 341 345 340 340 340 340
314 312 315 314 310 301 299 307 314 315 322 323 324 326 327 328 327 325 328 331 333 332 331 339 340 340 344 344 345 345 346 345 346 344 345 342 341 344 343 342 341 340 339 336 340 339 337 335 335
315 314 316 309 307 306 301 308 322 324 326 326 326 328 330 328 328 326 327 331 333 333 333 335 340 341 342 343 342 342 344 343 344 343 343 342 342 344 343 341 340 339 338 340 338 336 334 333 332
Wind_Speed
10 13 12 9 11 3 13 9 14 13 15 14 12 12 13 15 13 8 12 9 11 17 14 12 8 9 6 7 7 5 7 6 5 4 3 3 4 4 4 5 5 5 6 6 6 6 6 5 5
15 13 11 10 11 10 8 14 14 13 11 8 8 8 11 15 14 13 13 8 12 12 11 13 11 8 7 7 6 6 6 7 6 4 3 3 3 3 5 5 5 5 5 5 5 5 6 6 5
17 18 12 8 7 11 10 11 13 10 10 6 8 15 14 12 8 11 16 11 14 11 15 13 12 9 8 7 6 5 5 4 5 4 3 3 4 4 4 5 6 6 6 6 5 4 4 6 6
10 11 9 2 10 8 9 8 7 4 11 9 4 13 12 10 6 17 14 13 11 14 15 15 13 10 8 7 5 4 4 5 5 4 3 3 4 4 3 4 5 5 6 7 6 5 5 5 7
13 11 10 9 7 8 8 7 3 9 6 12 15 16 13 13 15 15 12 10 10 11 16 15 12 11 8 7 5 4 4 5 5 4 4 4 3 3 2 1 2 4 5 7 9 8 7 6 6
13 2 10 9 10 6 9 4 2 6 9 9 7 15 14 13 12 13 12 10 9 10 14 14 13 11 9 7 6 5 5 6 5 5 4 4 4 3 3 2 2 2 4 5 5 7 8 8 8
17 8 8 2 9 6 11 2 9 8 12 11 3 13 13 13 13 13 11 10 9 10 11 13 13 11 9 8 8 7 6 7 6 5 4 4 6 7 7 6 4 2 4 5 5 5 6 7 8
12 6 9 6 6 2 12 1 7 11 11 9 7 10 14 15 13 12 12 11 10 10 9 12 13 14 12 12 10 9 8 6 5 6 6 8 11 13 11 10 5 2 2 3 3 4 6 5 6
11 8 1 10 3 3 12 3 6 3 7 9 9 10 16 15 13 13 11 11 10 10 9 8 11 13 11 15 11 9 8 8 9 11 10 11 10 11 13 10 5 2 1 2 2 5 8 9 10
11 6 17 11 10 12 5 5 9 2 8 11 13 12 16 15 12 11 10 11 10 10 10 9 9 9 8 7 13 11 11 11 8 2 3 8 4 6 6 6 9 7 7 9 9 10 13 15 8
6 13 12 13 10 9 11 2 5 8 9 7 14 13 14 13 10 11 11 9 13 10 8 9 7 7 8 7 8 5 5 5 4 2 3 3 3 5 6 5 8 7 11 4 8 7 6 8 6
10 10 9 11 6 4 10 6 11 9 8 6 13 13 12 10 10 8 10 12 9 10 11 10 11 10 8 5 5 5 4 4 4 5 4 1 5 3 3 3 2 4 3 0 2 3 4 4 2
5 8 4 5 3 9 3 8 6 9 4 4 6 10 11 9 6 8 4 6 9 7 10 12 11 10 8 8 5 4 5 5 3 4 5 2 3 2 3 3 4 3 2 3 3 1 2 2 4
4 4 4 1 5 6 7 9 3 8 3 7 8 8 6 2 1 3 3 6 6 7 9 10 12 11 11 9 7 6 4 4 3 4 4 4 4 0 1 3 1 1 3 4 4 4 3 2 2
2 15 12 9 9 3 6 9 12 6 6 6 7 6 3 5 4 2 4 5 8 7 6 7 10 12 11 11 8 7 6 6 5 5 5 6 4 4 5 0 4 1 3 6 2 3 3 4 5
13 21 10 14 3 8 9 10 9 7 9 7 5 5 6 4 5 6 6 5 6 6 2 7 9 12 12 10 9 8 7 5 5 5 6 7 6 4 4 4 2 5 5 3 2 3 3 3 2
34 13 9 12 12 3 2 13 9 5 5 4 8 6 5 8 5 5 3 4 5 5 4 8 10 11 13 12 9 10 7 5 4 4 6 9 9 8 5 5 1 2 4 3 4 2 2 1 4
14 10 5 2 10 8 4 7 13 7 6 7 5 8 6 6 6 7 2 2 5 6 4 8 10 11 12 10 8 8 6 5 5 6 6 8 8 8 5 6 1 3 4 4 2 3 3 4 3
11 12 12 15 9 9 8 7 8 13 9 7 8 8 8 4 8 7 3 2 5 5 5 8 10 11 10 10 10 8 7 6 6 7 7 8 8 8 6 7 4 4 4 3 3 5 5 5 1
15 17 9 3 5 7 14 15 12 7 5 7 5 8 8 7 7 7 5 2 3 5 5 7 9 11 10 8 7 6 6 5 5 7 7 8 9 9 7 6 4 3 4 4 5 4 7 5 1
14 8 14 16 10 18 7 3 4 11 6 6 6 4 4 1 2 10 8 5 6 6 8 9 10 11 11 9 6 3 3 2 6 6 7 8 10 10 9 7 6 3 5 5 6 6 7 8 2
13 10 16 20 13 9 13 7 4 9 6 7 10 10 6 4 4 2 4 8 8 6 7 9 10 9 10 9 7 7 7 6 5 5 8 8 11 10 9 9 8 6 6 5 4 6 7 6 8
16 15 18 18 16 16 11 11 13 30 7 7 5 7 5 3 3 3 5 4 1 5 7 7 9 9 9 9 10 7 9 6 4 6 6 5 5 8 10 9 9 9 7 7 5 7 5 7 6
10 13 18 17 16 6 12 14 10 6 9 9 8 9 4 2 4 2 1 2 5 9 6 6 9 9 10 9 10 9 9 8 5 7 6 7 8 8 8 11 9 7 9 8 7 8 8 8 9
8 15 4 5 9 5 18 12 9 22 8 8 6 9 6 6 8 11 15 12 10 14 7 5 8 8 8 8 9 10 9 9 9 10 8 8 5 6 10 11 8 9 7 11 8 7 8 8 8
14 10 10 18 10 7 11 6 12 12 10 6 6 6 6 9 11 11 11 11 12 10 9 5 5 6 7 7 8 9 9 7 9 10 9 5 5 6 6 10 8 8 12 9 9 7 9 9 8
7 9 11 12 17 13 3 4 6 12 11 7 7 8 6 7 7 7 9 10 8 6 8 7 4 2 5 5 6 8 4 8 10 7 7 8 7 6 4 7 8 12 12 10 8 9 10 8 7
10 11 11 5 6 14 8 14 4 26 13 8 8 7 5 3 5 8 8 9 9 11 7 8 7 7 5 7 5 3 7 8 7 7 9 10 4 6 7 9 10 12 9 7 9 9 11 8 7
6 4 12 6 9 14 14 3 15 28 8 7 6 5 4 4 10 8 8 9 9 11 12 10 8 6 7 3 5 5 5 5 8 6 8 8 6 11 10 9 10 10 9 6 6 9 12 9 9
8 11 12 10 3 9 11 5 9 6 4 7 6 5 7 7 9 9 9 8 8 10 11 9 7 9 6 5 6 4 5 7 5 5 7 7 8 10 10 9 8 9 9 10 10 12 9 11 12
Wind_Direction
210 223 235 254 248 128 62 88 62 43 76 59 47 41 72 32 10 47 106 94 105 97 113 143 134 138 140 116 109 120 134 131 127 113 85 51 34 46 46 36 23 15 19 14 4 2 359 360 2
235 233 240 262 251 85 61 75 67 64 86 125 72 62 61 56 71 107 120 123 108 117 139 128 145 142 145 132 131 149 142 146 145 134 115 64 56 56 37 29 27 29 29 24 16 2 350 348 340
260 260 268 260 13 62 90 87 86 85 57 27 109 53 40 99 102 83 99 141 106 126 93 116 142 150 138 142 143 151 155 156 151 149 135 114 105 81 63 47 41 40 32 24 22 17 356 341 332
256 227 239 355 92 27 92 94 92 145 125 74 16 100 81 78 113 101 132 136 154 112 115 133 146 147 144 144 146 158 173 170 165 155 141 137 120 109 79 57 35 22 12 2 358 356 349 333 323
235 260 252 122 102 64 94 70 332 122 79 45 71 78 92 88 100 119 131 136 127 131 114 138 144 142 149 150 150 157 175 179 169 162 153 152 148 149 144 101 21 11 5 352 348 354 349 342 332
279 269 274 95 97 132 92 94 194 74 99 113 86 104 93 121 136 132 146 149 144 129 126 133 144 148 155 150 153 157 173 172 172 167 169 184 201 209 215 228 270 333 342 345 352 352 339 334 327
273 306 2 16 115 113 76 318 60 29 56 55 132 97 121 156 133 145 157 155 158 141 133 142 155 153 161 161 164 160 167 174 179 186 202 232 233 236 238 234 235 292 324 355 350 346 330 319 313
287 260 210 103 59 157 96 185 22 42 69 75 308 117 142 122 147 154 165 164 165 155 151 155 154 165 175 158 167 167 170 185 199 215 226 238 232 227 224 226 201 247 7 342 344 342 314 286 270
260 359 12 59 51 81 103 221 69 47 121 71 55 70 108 137 161 165 163 170 173 165 180 178 178 159 193 134 151 172 184 201 213 220 217 241 232 195 175 89 139 146 241 229 247 269 272 257 237
280 339 36 26 8 355 81 300 105 151 134 130 102 100 123 150 167 170 179 185 185 186 195 189 187 165 165 144 144 197 175 198 194 172 184 254 41 22 2 139 176 192 214 227 230 237 253 255 216
311 26 9 58 34 338 26 45 47 52 351 139 127 134 145 155 170 179 198 213 181 204 202 191 188 175 169 195 166 180 171 157 164 183 274 55 297 175 194 179 180 193 204 211 221 220 254 16 330
283 70 19 25 40 2 37 22 89 32 68 54 114 140 153 171 174 228 209 188 213 211 184 205 194 178 208 206 201 154 222 182 196 152 194 189 227 184 325 5 250 214 48 7 270 313 45 268 270
280 56 48 63 78 20 9 51 56 86 80 129 138 149 168 190 192 175 235 295 308 251 200 201 198 181 199 208 185 200 232 177 179 189 156 305 276 345 288 34 328 329 302 344 333 5 22 293 207
25 360 62 26 74 110 257 111 213 103 142 154 162 174 170 137 304 336 277 297 298 263 265 203 192 181 198 208 192 206 238 190 228 207 163 208 265 234 234 211 347 317 311 324 319 34 325 309 282
246 240 192 111 63 85 290 185 91 104 179 149 183 181 205 197 171 168 38 14 350 312 264 231 196 178 197 196 193 218 226 210 216 216 136 243 236 172 315 224 261 287 319 301 294 242 203 233 214
259 325 127 96 29 99 270 94 111 153 182 150 178 169 201 144 218 111 73 32 7 325 330 179 197 178 181 203 196 217 218 230 212 219 172 210 210 241 230 238 292 43 271 263 305 275 265 259 222
324 261 41 104 74 312 247 109 129 145 123 146 181 172 168 173 158 116 48 35 27 35 122 160 192 190 178 201 198 222 216 208 224 211 202 178 222 209 236 262 35 238 285 289 306 276 294 281 271
241 351 350 20 58 322 12 28 124 169 194 156 164 178 188 209 155 115 221 64 64 60 103 161 177 187 184 182 211 209 214 213 236 219 218 180 225 220 207 257 178 260 262 243 356 321 349 313 309
306 305 21 329 96 296 63 310 100 167 173 178 182 171 202 220 132 152 159 110 100 109 149 170 183 184 187 192 199 203 197 202 218 224 219 212 226 224 203 261 171 218 270 303 279 262 209 266 168
287 302 333 235 353 292 355 43 13 159 153 169 187 177 194 191 174 187 181 144 122 143 166 183 190 186 203 204 217 212 204 188 228 216 199 220 225 234 222 241 267 208 282 199 255 259 301 230 231
297 348 317 318 312 72 259 208 271 119 182 110 125 196 159 238 233 185 198 217 169 175 187 187 196 188 206 226 200 166 168 212 226 229 206 208 227 228 223 227 247 192 252 241 199 231 260 291 188
294 349 313 300 289 301 229 121 177 271 144 231 175 162 133 122 181 189 241 206 199 214 193 195 196 193 206 219 197 205 225 225 223 207 216 204 197 222 232 224 216 228 246 258 234 236 273 234 282
303 323 301 309 291 284 23 298 59 323 142 132 114 118 121 169 101 349 345 12 268 164 203 204 199 197 218 204 254 201 245 241 226 263 242 209 211 221 227 218 219 217 226 253 252 286 222 274 258
307 278 42 353 351 305 206 250 137 173 134 117 109 92 117 81 142 1 107 164 202 177 192 205 200 210 212 212 215 246 263 259 245 250 244 231 213 191 222 231 210 213 229 244 239 235 252 255 290
254 271 123 258 255 166 281 338 158 222 105 102 119 112 93 8 43 24 24 5 10 10 152 232 207 213 218 225 233 227 238 257 248 261 233 255 223 195 202 213 212 217 221 245 250 229 244 244 252
306 339 305 311 332 349 159 206 231 129 104 141 146 108 53 29 31 30 44 14 19 11 14 331 234 223 219 228 245 239 233 233 234 233 257 230 242 224 155 191 217 223 241 236 231 246 245 235 238
339 281 339 310 316 281 99 185 60 130 120 173 111 83 64 59 38 24 64 31 5 11 29 354 329 296 227 249 253 244 229 229 267 280 225 251 261 276 171 226 209 229 231 237 223 226 241 242 248
261 310 284 93 227 271 177 96 163 302 152 133 129 110 87 34 52 29 40 56 10 7 43 31 359 20 7 25 355 294 235 226 249 258 233 246 278 272 252 231 229 235 251 240 225 241 234 227 242
247 245 262 292 320 12 348 334 195 211 184 124 116 98 95 21 30 22 43 30 27 15 11 51 2 18 61 23 282 267 268 248 235 238 253 247 256 255 241 249 252 251 246 264 257 254 277 268 258
281 299 328 306 30 167 192 259 125 343 159 149 123 124 51 5 31 21 17 29 42 16 9 20 8 31 18 342 2 332 315 298 274 260 251 233 230 240 237 240 252 258 251 236 233 233 256 261 263